Manhattan, KS

6:58 AM CST on December 09, 2016 (GMT -0600)
Manhattan Regional

Weather History for KMHK - November, 2011

Change the Weather History Date:

Sunday, November 6, 2011

  Actual Average Record
Temperature  
Mean Temperature 50 °F 47 °F  
Max Temperature 62 °F 60 °F 79 °F (2001)
Min Temperature 39 °F 34 °F 24 °F (2003)
Degree Days  
Heating Degree Days 14 18  
Month to date heating degree days 103  
Since 1 July heating degree days 502  
Cooling Degree Days 0 0  
Month to date cooling degree days 0  
Year to date cooling degree days 1361  
Moisture  
Dew Point 35 °F    
Average Humidity 55    
Maximum Humidity 89    
Minimum Humidity 27    
Precipitation  
Precipitation 0.00 in 0.07 in 0.36 in (2000)
Month to date precipitation 0.46  
Year to date precipitation 30.39  
Sea Level Pressure  
Sea Level Pressure 29.91 in    
Wind  
Wind Speed 12 mph (SSW)    
Max Wind Speed 21 mph    
Max Gust Speed 37 mph    
Visibility 10 miles    
Events      
T = Trace of Precipitation, MM = Missing Value Source: NWS Daily Summary

Daily Weather History Graph

Daily Weather History Graph

Search for Another Location

Airport or City:

Trip Planner

Search our weather history database for the weather conditions in past years. The results will help you decide how hot, cold, wet, or windy it might be!

Date:

Astronomy

Nov. 06, 2011 Rise Set
Actual Time 6:59 AM CST 5:20 PM CST
Civil Twilight 6:31 AM CST 5:48 PM CST
Nautical Twilight 5:59 AM CST 6:20 PM CST
Astronomical Twilight 5:28 AM CST 6:51 PM CST
Moon 3:03 PM CST (11/6) 3:08 AM CST (11/6)
Length of Visible Light 11h 17m
Length of Day
10h 21m
Waxing Gibbous, 86% of the Moon is Illuminated
Nov 6
Waxing Gibbous
Nov 10
Full
Nov 18
Last Quarter
Nov 25
New
Dec 2
First Quarter

Hourly Weather History & Observations

Time (CST) Temp. Windchill Dew Point Humidity Pressure Visibility Wind Dir Wind Speed Gust Speed Precip Events Conditions
12:52 AM 55.0 °F - 43.0 °F 64% 29.68 in 10.0 mi SSW 20.7 mph 36.8 mph N/A   Partly Cloudy
1:52 AM 55.4 °F - 42.8 °F 63% 29.69 in 10.0 mi SSW 18.4 mph 27.6 mph N/A   Clear
1:52 AM 55.0 °F - 43.0 °F 64% 29.70 in 10.0 mi SSW 20.7 mph 28.8 mph N/A   Clear
2:52 AM 54.0 °F - 44.1 °F 69% 29.73 in 10.0 mi SSW 18.4 mph 26.5 mph N/A   Clear
3:52 AM 53.1 °F - 44.1 °F 71% 29.73 in 10.0 mi SSW 17.3 mph - N/A   Clear
4:52 AM 51.1 °F - 44.1 °F 77% 29.78 in 10.0 mi SW 12.7 mph 20.7 mph N/A   Clear
5:52 AM 50.0 °F - 44.1 °F 80% 29.81 in 10.0 mi SW 11.5 mph - N/A   Clear
6:52 AM 46.0 °F 44.8 °F 43.0 °F 89% 29.86 in 10.0 mi SW 3.5 mph - N/A   Clear
7:52 AM 48.9 °F - 43.0 °F 80% 29.91 in 10.0 mi WSW 5.8 mph - N/A   Clear
8:52 AM 53.1 °F - 39.0 °F 59% 29.94 in 10.0 mi Variable 5.8 mph - N/A   Clear
9:52 AM 55.0 °F - 34.0 °F 45% 29.97 in 10.0 mi Variable 5.8 mph - N/A   Clear
10:52 AM 55.9 °F - 32.0 °F 40% 29.98 in 10.0 mi Variable 3.5 mph - N/A   Clear
11:52 AM 60.1 °F - 32.0 °F 35% 29.96 in 10.0 mi Variable 6.9 mph - N/A   Clear
12:52 PM 60.1 °F - 30.0 °F 32% 29.94 in 10.0 mi NNE 8.1 mph - N/A   Clear
1:52 PM 62.6 °F - 28.4 °F 27% 29.93 in 10.0 mi East 4.6 mph - N/A   Clear
2:52 PM 62.1 °F - 30.0 °F 30% 29.94 in 10.0 mi ESE 5.8 mph - N/A   Clear
3:52 PM 61.0 °F - 28.9 °F 30% 29.95 in 10.0 mi ESE 4.6 mph - N/A   Clear
4:52 PM 57.0 °F - 30.0 °F 36% 29.97 in 10.0 mi NNE 3.5 mph - N/A   Clear
5:52 PM 53.6 °F - 28.4 °F 38% 29.99 in 10.0 mi North 4.6 mph - N/A   Clear
6:52 PM 51.1 °F - 27.0 °F 39% 30.01 in 10.0 mi North 4.6 mph - N/A   Clear
7:52 PM 46.0 °F - 28.9 °F 51% 30.04 in 10.0 mi Calm Calm - N/A   Clear
8:52 PM 42.1 °F - 30.0 °F 62% 30.06 in 10.0 mi Calm Calm - N/A   Clear
9:52 PM 39.9 °F - 30.0 °F 68% 30.08 in 10.0 mi Calm Calm - N/A   Clear
10:52 PM 39.0 °F - 30.9 °F 73% 30.09 in 10.0 mi Calm Calm - N/A   Clear